Friday Harbor, WA

12:29 PM PST on January 19, 2018 (GMT -0800)
Friday Harbor

Weather History for KFHR - January, 2013

Change the Weather History Date:

Saturday, January 26, 2013

  Actual Average Record
Temperature  
Mean Temperature 40 °F -  
Max Temperature 44 °F 44 °F 55 °F (2003)
Min Temperature 37 °F 36 °F 19 °F (2009)
Degree Days  
Heating Degree Days 24    
Moisture  
Dew Point 38 °F    
Average Humidity 90    
Maximum Humidity 100    
Minimum Humidity 80    
Precipitation  
Precipitation 0.01 in - - ()
Sea Level Pressure  
Sea Level Pressure 29.91 in    
Wind  
Wind Speed 6 mph (SE)    
Max Wind Speed 16 mph    
Max Gust Speed 24 mph    
Visibility 9 miles    
Events Rain    
Averages and records for this station are not official NWS values.
T = Trace of Precipitation, MM = Missing Value Source: NWS Daily Summary

Daily Weather History Graph

Daily Weather History Graph

Search for Another Location

Airport or City:

Trip Planner

Search our weather history database for the weather conditions in past years. The results will help you decide how hot, cold, wet, or windy it might be!

Date:

Astronomy

Jan. 26, 2013 Rise Set
Actual Time 7:48 AM PST 5:01 PM PST
Civil Twilight 7:13 AM PST 5:36 PM PST
Nautical Twilight 6:35 AM PST 6:14 PM PST
Astronomical Twilight 5:58 AM PST 6:51 PM PST
Moon 5:06 PM PST (1/26) 7:06 AM PST (1/26)
Length of Visible Light 10h 22m
Length of Day
9h 13m
Full, 100% of the Moon is Illuminated
Jan 26
Full
Jan 26
Full
Feb 3
Last Quarter
Feb 9
New
Feb 17
First Quarter

Hourly Weather History & Observations

Time (PST) Temp. Windchill Dew Point Humidity Pressure Visibility Wind Dir Wind Speed Gust Speed Precip Events Conditions
12:11 AM 42.8 °F 38.0 °F 37.4 °F 81% 29.89 in 10.0 mi SE 8.1 mph - N/A   Overcast
12:32 AM 42.8 °F 39.3 °F 37.4 °F 81% 29.89 in 10.0 mi East 5.8 mph - N/A   Scattered Clouds
12:51 AM 42.8 °F 39.3 °F 37.4 °F 81% 29.88 in 10.0 mi ENE 5.8 mph - N/A   Mostly Cloudy
12:53 AM 42.1 °F 39.2 °F 37.9 °F 85% 29.88 in 10.0 mi ENE 4.6 mph - N/A   Mostly Cloudy
1:15 AM 41.0 °F 35.8 °F 37.4 °F 87% 29.87 in 10.0 mi ENE 8.1 mph - N/A   Partly Cloudy
1:53 AM 42.1 °F 36.6 °F 37.9 °F 85% 29.88 in 10.0 mi East 9.2 mph - N/A   Partly Cloudy
2:49 AM 42.8 °F 37.5 °F 37.4 °F 81% 29.86 in 10.0 mi East 9.2 mph - N/A   Overcast
2:53 AM 43.0 °F 38.2 °F 37.9 °F 82% 29.86 in 10.0 mi East 8.1 mph - N/A   Overcast
3:53 AM 44.1 °F 37.7 °F 39.0 °F 82% 29.86 in 10.0 mi SE 12.7 mph 20.7 mph N/A   Overcast
4:53 AM 43.0 °F 35.7 °F 39.0 °F 86% 29.85 in 10.0 mi SE 15.0 mph 23.0 mph N/A   Overcast
5:53 AM 43.0 °F 36.0 °F 37.0 °F 80% 29.85 in 10.0 mi SE 13.8 mph 23.0 mph N/A   Overcast
6:53 AM 42.1 °F 34.2 °F 37.0 °F 82% 29.86 in 10.0 mi SSE 16.1 mph 24.2 mph N/A   Overcast
7:34 AM 41.0 °F 33.5 °F 39.2 °F 93% 29.86 in 8.0 mi SSE 13.8 mph - 0.00 in Rain Light Rain
7:53 AM 41.0 °F 35.2 °F 37.9 °F 89% 29.87 in 10.0 mi SSE 9.2 mph 16.1 mph 0.00 in   Overcast
8:17 AM 41.0 °F 35.8 °F 37.4 °F 87% 29.87 in 9.0 mi SE 8.1 mph - 0.00 in Rain Light Rain
8:25 AM 41.0 °F 38.0 °F 37.4 °F 87% 29.87 in 9.0 mi Variable 4.6 mph - 0.00 in Rain Light Rain
8:50 AM 41.0 °F - 39.2 °F 93% 29.88 in 8.0 mi Calm Calm - 0.00 in Rain Light Rain
8:53 AM 41.0 °F - 39.0 °F 93% 29.88 in 9.0 mi Calm Calm - 0.00 in Rain Light Rain
9:32 AM 41.0 °F - 39.2 °F 93% 29.89 in 5.0 mi Calm Calm - 0.00 in Rain Light Rain
9:53 AM 41.0 °F - 39.9 °F 96% 29.89 in 7.0 mi Calm Calm - 0.00 in Rain Light Rain
10:53 AM 41.0 °F 38.0 °F 39.0 °F 93% 29.91 in 10.0 mi SW 4.6 mph - 0.00 in   Overcast
11:53 AM 41.0 °F 39.0 °F 39.9 °F 96% 29.91 in 10.0 mi Variable 3.5 mph - 0.00 in Rain Light Rain
12:53 PM 42.1 °F 40.2 °F 39.9 °F 92% 29.91 in 10.0 mi SSW 3.5 mph - 0.00 in Rain Light Rain
1:53 PM 43.0 °F 41.3 °F 39.9 °F 89% 29.91 in 10.0 mi SE 3.5 mph - 0.00 in   Overcast
2:53 PM 44.1 °F - 39.9 °F 85% 29.91 in 10.0 mi Calm Calm - N/A   Overcast
3:53 PM 44.1 °F 42.5 °F 41.0 °F 89% 29.92 in 10.0 mi South 3.5 mph - N/A   Overcast
4:53 PM 41.0 °F - 39.0 °F 93% 29.93 in 10.0 mi Calm Calm - N/A   Mostly Cloudy
5:53 PM 39.9 °F - 39.0 °F 97% 29.95 in 10.0 mi Calm Calm - 0.00 in   Overcast
6:53 PM 39.0 °F - 37.9 °F 96% 29.96 in 10.0 mi Calm Calm - 0.01 in   Mostly Cloudy
7:53 PM 39.9 °F 37.8 °F 39.0 °F 97% 29.98 in 10.0 mi West 3.5 mph - N/A   Overcast
8:53 PM 39.0 °F - 37.9 °F 96% 29.99 in 5.0 mi Calm Calm - N/A   Overcast
9:53 PM 39.0 °F - 37.9 °F 96% 30.00 in 10.0 mi Calm Calm - N/A   Overcast
10:53 PM 37.9 °F - 37.9 °F 100% 30.02 in 9.0 mi Calm Calm - 0.00 in   Overcast
11:46 PM 39.2 °F - 39.2 °F 100% 30.02 in 5.0 mi Calm Calm - 0.00 in Rain Light Rain
11:53 PM 39.0 °F - 37.9 °F 96% 30.03 in 5.0 mi Calm Calm - 0.00 in Rain Light Rain